#timestamp,LO_Frequency,Hit,StdDev 
1598356815.2,286047001.9,N
1598356835.1,286047000.4,N
1598356836.0,286047000.4,N
1598356855.8,286047000.0,N
1598356875.6,286047000.5,N
1598356895.5,286047000.8,N
1598356915.3,286047000.6,N
1598356935.1,286047000.2,N
1598356955.9,286047002.3,N
1598356975.7,286047001.7,N
1598356995.6,286047004.8,N
1598357015.4,286047007.5,Y
1598357035.2,286047006.2,P
1598357055.1,286047009.0,P
1598357056.0,286047009.0,N
1598357075.8,286047006.5,N
1598357095.6,286047007.3,N
1598357115.5,286047005.4,N
1598357135.3,286047004.8,N
1598357155.2,286047004.6,N
1598357175.9,286047005.3,N
1598357195.7,286047004.6,N
1598357215.6,286047005.1,N
1598357235.4,286047005.3,N
1598357255.2,286047003.0,N
1598357275.1,286047006.0,N
1598357276.0,286047006.0,N
1598357295.8,286047003.8,N
1598357315.7,286047004.0,N
1598357335.5,286047001.8,N
1598357355.3,286047002.2,N
1598357375.2,286046999.9,N
1598357395.0,286047002.8,N
1598357395.9,286047002.8,N
1598357415.8,286047000.0,N
1598357435.6,286047002.6,N
1598357455.4,286046998.6,N
1598357475.3,286046998.8,N
1598357495.1,286046999.6,N
1598357515.8,286046994.9,N
1598357535.7,286046996.2,N
1598357555.5,286046996.2,N
1598357575.4,286046996.2,N
1598357595.2,286046996.3,N
1598357615.0,286046995.7,N
1598357615.9,286046995.7,N
1598357635.8,286046995.8,N
1598357655.6,286046996.2,N
1598357675.4,286046993.7,N
1598357695.3,286046994.1,N
1598357715.1,286046994.1,N
1598357735.9,286046992.0,N
1598357755.7,286046993.2,N
1598357775.5,286046990.2,N
1598357795.4,286046991.0,N
1598357815.2,286046989.0,N
1598357835.0,286046989.5,N
1598357836.0,286046989.5,N
1598357855.8,286046987.3,N
1598357875.6,286046987.6,N
1598357895.5,286046988.0,N
1598357915.3,286046988.2,N
1598357935.1,286046985.3,Y
1598357955.9,286046992.0,P
1598357975.7,286046991.9,P
1598357995.6,286046992.5,P
1598358015.4,286046991.9,Y
1598358035.2,286046996.6,P
1598358055.1,286046999.1,N
1598358056.0,286046999.1,N
1598358075.8,286046999.4,N
1598358095.7,286046997.1,N
1598358115.5,286046997.8,N
1598358135.3,286046995.3,N
1598358155.2,286046995.0,N
1598358175.0,286046995.0,N
1598358175.9,286046995.0,N
1598358195.8,286046995.9,N
1598358215.6,286046996.1,N
1598358235.4,286046996.4,N
1598358255.3,286046995.6,N
1598358275.1,286046995.5,N
1598358295.8,286046995.8,N
1598358315.7,286046996.1,N
1598358335.5,286046996.2,N
1598358355.4,286046996.0,N
1598358375.2,286046993.4,Y
1598358395.0,286046999.6,P
1598358395.9,286046999.6,N
1598358415.8,286046997.0,N
1598358435.6,286046996.9,N
1598358455.5,286046997.5,N
1598358475.3,286046995.4,Y
1598358495.1,286046996.6,P
1598358515.9,286046999.6,N
1598358535.7,286046996.7,N
1598358555.5,286046997.4,N
1598358575.4,286046995.5,Y
1598358595.2,286046999.6,P
1598358615.1,286046999.4,N
1598358616.0,286046999.4,N
1598358635.8,286046999.4,N
1598358655.6,286046998.8,N
1598358675.5,286046999.6,N
1598358695.3,286046998.9,N
1598358715.2,286046997.0,Y
1598358735.9,286046998.3,P
1598358755.7,286047000.3,N
1598358775.6,286047002.1,N
1598358795.4,286047003.4,N
1598358815.3,286047005.2,N
1598358835.1,286047003.1,N
1598358836.0,286047003.1,N
1598358855.8,286047003.3,N
1598358875.7,286047003.0,N
1598358895.5,286047001.4,N
1598358915.3,286047004.3,N
1598358935.2,286047002.7,N
1598358955.0,286047002.7,N
1598358955.9,286047002.7,N
1598358975.8,286047000.5,N
1598358995.6,286047000.6,N
1598359015.4,286047000.2,N
1598359035.3,286047002.8,N
1598359055.1,286047000.8,N
1598359075.9,286046999.0,N
1598359095.7,286046996.8,N
1598359115.5,286046999.5,N
1598359135.4,286046997.3,N
1598359155.2,286046995.3,N
1598359175.0,286046995.4,N
1598359175.9,286046995.4,N
1598359195.8,286046995.5,N
1598359215.6,286046995.2,N
1598359235.5,286046997.8,N
1598359255.3,286046996.6,N
1598359275.1,286046999.5,N
1598359295.9,286046999.2,N
1598359315.7,286046996.6,N
1598359335.5,286046994.9,N
1598359355.4,286046997.5,N
1598359375.2,286046997.7,N
1598359395.1,286046995.0,N
1598359396.0,286046995.0,N
1598359415.8,286046995.2,N
1598359435.6,286046995.2,N
1598359455.5,286046994.9,N
1598359475.3,286046995.0,N
1598359495.1,286046996.7,N
1598359515.9,286046999.4,N
1598359535.7,286047003.7,N
1598359555.6,286047003.3,N
1598359575.4,286047006.6,N
1598359595.2,286047007.5,N
1598359615.1,286047006.5,N
1598359616.0,286047006.5,N
1598359635.8,286047005.7,N
1598359655.6,286047004.0,N
1598359675.5,286047001.4,N
1598359695.3,286046999.7,N
1598359715.2,286047002.8,N
1598359735.9,286047001.1,N
1598359755.7,286047001.2,N
1598359775.6,286046999.0,N
1598359795.4,286046996.6,N
1598359815.2,286046999.6,N
1598359835.1,286046999.1,N
1598359836.0,286046999.1,N
1598359855.8,286046997.5,N
1598359875.7,286046997.8,N
1598359895.5,286046997.6,N
1598359915.3,286046995.3,N
1598359935.2,286046995.5,N
1598359955.0,286046996.4,N
1598359955.9,286046996.4,N
1598359975.8,286046993.4,N
1598359995.6,286046996.2,N
1598360015.4,286046996.1,N
1598360035.3,286046995.8,N
1598360055.1,286046996.4,N
1598360075.8,286046993.9,N
1598360095.7,286046994.4,N
1598360115.5,286046991.9,N
1598360135.4,286046992.1,N
1598360155.2,286046992.8,N
1598360175.0,286046991.3,N
1598360175.9,286046991.3,N
1598360195.8,286046988.9,Y
1598360215.6,286046994.7,P
1598360235.4,286046992.2,P
1598360255.3,286046992.6,P
1598360275.1,286046992.0,Y
1598360295.9,286046998.9,P
1598360315.7,286046998.9,N
1598360335.5,286046998.9,N
1598360355.4,286046999.1,N
1598360375.2,286046998.3,N
1598360395.0,286046997.0,N
1598360396.0,286046997.0,N
